Dewpoint
52 52 51 51 51 49 50 50 51 51 52 52 50 51 51 51 49 49 48 49 48 47 48 47 47 49 44 37 35 45 52 55 54 54 47 49 40 45 43 41 38 38 35 34 34 38 37
51 52 50 50 50 50 50 50 50 51 52 49 50 50 50 50 48 46 47 48 48 46 46 45 46 47 40 34 35 45 51 53 53 53 45 47 39 43 42 40 38 37 37 35 34 38 39
51 51 50 50 49 49 50 50 51 52 50 50 51 49 50 49 45 45 45 46 48 47 46 45 46 43 38 33 39 49 48 47 51 52 46 44 41 40 44 41 39 37 36 36 34 37 37
51 50 50 50 49 49 49 50 51 51 51 51 51 50 50 50 46 45 45 45 45 46 46 46 46 41 34 35 36 34 48 49 48 51 52 47 45 39 43 41 38 36 35 33 35 35 36
51 50 51 49 49 48 49 50 51 51 51 51 50 50 48 47 46 45 45 45 46 46 45 45 42 39 31 41 33 33 37 45 46 51 51 52 48 39 43 38 37 35 30 32 32 35 35
50 50 49 49 49 48 49 49 50 51 51 50 49 49 48 47 46 45 45 45 46 46 45 40 37 34 33 29 35 34 41 50 47 50 47 49 46 38 39 37 32 32 29 29 29 33 34
50 50 49 49 49 48 48 49 49 51 51 49 48 48 49 47 47 45 45 45 41 38 37 32 31 30 32 38 40 41 48 49 46 47 43 46 39 35 35 34 33 28 28 25 25 33 32
49 50 49 49 49 48 48 48 48 50 50 51 49 48 48 48 46 46 45 36 37 39 33 32 30 30 34 39 39 43 47 43 43 41 41 41 36 35 35 31 29 26 25 24 25 31 31
49 49 49 49 49 48 48 48 47 48 49 49 50 49 48 48 47 46 40 40 43 42 38 37 38 37 40 44 41 42 45 41 41 40 39 36 35 35 31 29 27 27 25 23 26 31 30
49 49 49 49 48 49 48 48 47 47 47 47 49 50 49 48 44 42 40 43 45 44 33 35 38 41 43 46 42 48 48 43 41 36 37 38 38 35 32 29 27 25 27 27 30 29 24
48 49 49 48 49 48 49 49 48 47 47 46 48 49 50 47 45 40 41 43 44 42 22 37 38 43 45 42 42 44 49 40 37 38 40 37 38 37 34 32 30 28 33 31 32 30 29
48 48 49 48 47 47 47 48 49 47 47 47 47 49 49 46 47 41 44 44 43 32 25 34 39 38 40 39 40 41 42 42 42 38 38 38 41 40 39 36 32 35 32 31 31 29 24
48 48 49 49 49 48 47 47 47 48 47 46 47 48 48 42 42 44 45 42 32 26 36 34 37 40 36 36 38 38 37 36 35 32 32 35 35 39 39 36 35 32 30 27 24 24 22
47 47 48 49 49 48 48 48 47 47 47 48 49 49 49 42 45 46 44 38 26 31 35 37 37 36 34 36 37 38 37 35 39 37 35 32 28 35 37 37 33 32 29 27 18 21 21
47 47 48 48 48 48 47 47 47 47 48 47 49 47 45 47 46 45 41 31 30 33 36 31 31 34 35 34 34 38 37 37 38 38 34 33 31 37 37 38 36 34 32 26 25 18 21
46 47 47 47 47 47 47 47 46 47 47 47 44 44 44 45 46 44 40 32 35 37 36 32 28 29 28 29 31 32 32 36 34 34 33 32 31 37 37 39 38 34 31 28 28 17 16
46 47 46 47 47 47 46 46 46 46 47 48 45 40 45 47 47 42 35 37 34 36 35 31 28 26 28 28 29 27 29 31 30 29 30 32 31 35 37 35 34 33 31 30 27 26 22
46 45 46 46 46 47 47 46 46 45 46 45 45 40 46 48 43 41 38 37 39 34 36 32 33 31 29 29 28 27 28 30 31 30 29 31 31 31 33 32 32 34 32 31 29 23 22
45 45 45 45 46 47 46 46 46 45 44 42 40 40 47 47 37 34 36 34 36 33 33 31 30 32 31 28 27 29 30 32 34 32 30 30 30 27 28 30 30 29 29 30 27 30 27
45 44 45 46 46 46 46 46 46 44 44 43 41 38 43 44 40 37 34 32 33 39 34 32 31 31 30 28 28 29 30 34 32 32 37 34 29 28 22 25 30 28 29 29 28 26 24
44 44 46 46 46 46 46 46 45 44 45 44 38 36 36 38 37 36 37 35 32 33 36 33 31 30 28 26 26 27 31 31 33 36 33 32 28 27 26 28 31 30 29 29 27 29 24
43 45 46 46 46 46 45 45 45 45 45 38 35 36 36 35 35 34 35 34 33 33 34 30 31 30 29 27 26 26 29 28 28 31 30 33 30 29 26 28 28 28 29 28 29 28 27
43 45 46 46 45 45 45 45 45 44 42 31 33 37 37 35 34 32 34 35 34 37 37 36 36 34 31 35 35 33 31 29 30 30 29 30 30 26 22 26 26 24 27 28 28 28 27
45 46 46 46 45 45 45 45 46 45 42 36 35 37 32 30 29 32 33 34 34 35 35 37 38 36 35 35 34 32 31 30 30 30 30 30 32 31 25 25 17 26 29 28 27 28 28
44 46 46 45 45 45 45 45 45 45 44 38 37 34 30 23 19 24 26 30 34 35 36 37 40 41 38 37 33 30 30 29 29 30 30 29 30 30 24 23 24 24 28 27 27 27 28
43 45 46 45 45 45 45 45 45 45 43 41 39 39 32 26 20 21 22 22 31 33 33 38 41 43 41 39 34 28 27 25 28 30 33 30 30 29 28 22 20 30 29 31 31 30 32
44 45 46 45 45 45 45 44 44 44 44 43 40 40 35 28 24 24 26 30 31 33 33 35 37 39 41 36 31 29 27 25 24 23 28 31 29 27 28 23 24 34 35 34 30 31 32
45 46 46 45 45 45 45 45 45 45 44 44 41 40 35 30 29 30 26 24 24 23 25 30 35 37 37 35 32 32 29 27 24 25 27 27 27 27 27 25 20 36 35 32 34 35 36
46 47 48 46 45 44 45 44 44 44 44 45 39 39 38 35 31 34 33 32 30 28 27 27 31 33 38 36 35 33 28 26 26 24 27 26 27 25 25 25 30 31 33 36 37 36 36
Lifted_Index
11 10 10 9 9 9 9 9 7 7 6 7 7 6 3 1 -0 -0 -0 -0 -0 -0 -0 -1 -1 0 2 4 4 3 1 0 -0 -0 0 0 1 0 -1 -0 1 1 1 1 1 2 2
11 11 10 10 9 9 9 8 7 6 7 7 7 5 3 1 0 0 0 0 -0 -0 -0 -1 -1 -0 1 3 3 2 1 1 -0 0 0 1 1 0 -1 -0 0 1 1 1 1 2 2
12 12 11 10 10 10 9 8 7 6 6 7 7 5 3 1 0 0 0 0 -0 -0 -1 -1 -1 -0 1 2 2 2 1 1 1 1 1 1 1 0 -0 -1 -0 0 1 1 2 2 2
13 12 11 10 10 10 9 8 7 6 6 6 6 5 2 1 -0 -0 -0 -0 -1 -1 -1 -1 -0 0 1 1 2 2 1 1 1 1 1 1 1 0 -0 -0 -0 0 1 1 1 2 1
13 13 11 10 10 10 9 8 7 6 5 5 5 4 3 1 0 -0 -1 -1 -1 -1 -1 -0 0 1 1 1 1 2 1 1 1 1 1 0 0 0 -0 -0 0 1 1 1 1 1 2
14 13 12 11 11 10 10 8 7 6 5 5 5 4 3 2 1 0 -0 -1 -1 -1 -1 -0 0 1 1 0 1 1 1 0 0 1 1 1 1 1 1 0 1 1 1 1 1 1 2
14 14 13 12 11 11 10 9 7 6 5 5 5 5 4 3 2 1 0 -0 -1 -1 -0 0 1 1 1 0 -0 -0 -0 -0 -0 0 0 0 1 1 1 1 1 1 1 1 1 2 2
15 14 13 12 11 11 10 9 8 7 6 5 5 5 4 4 3 2 2 1 1 0 0 1 1 1 1 0 -0 -0 -0 0 0 0 0 0 1 1 1 1 1 1 1 1 2 2 2
15 15 13 12 12 11 10 9 8 8 7 6 5 5 5 4 4 4 3 3 2 1 1 0 1 1 1 1 1 1 1 1 1 0 0 0 0 1 1 1 1 1 1 1 2 2 2
16 15 14 13 12 11 11 10 9 8 8 7 6 6 5 5 5 5 5 4 3 2 1 0 1 1 1 1 1 2 2 2 1 1 1 0 0 1 1 1 1 1 1 2 2 2 2
16 15 14 13 12 11 11 10 9 9 9 8 7 6 6 5 5 5 5 5 4 2 1 1 1 1 1 1 2 2 2 2 1 1 1 1 1 0 0 1 1 1 1 2 2 2 2
16 16 15 13 12 11 11 10 9 9 9 9 8 7 6 5 5 6 6 5 4 2 1 1 1 1 1 1 2 2 2 2 2 1 1 1 0 0 0 1 1 1 1 2 2 2 1
17 16 15 14 12 11 11 11 10 9 9 9 8 7 6 6 6 6 6 4 3 2 1 1 1 1 1 2 2 2 2 2 2 1 1 1 0 0 0 1 1 1 1 1 1 1 1
17 16 16 14 12 11 11 11 11 10 9 9 8 7 6 6 6 6 5 3 2 2 2 1 1 1 2 2 2 2 2 2 2 1 1 1 1 1 1 1 2 2 2 1 1 1 1
17 17 16 15 13 12 11 11 11 11 10 9 8 6 6 6 6 5 4 3 3 3 2 2 2 2 2 1 1 1 1 1 1 1 1 1 1 1 1 2 2 2 2 1 1 1 1
17 17 16 15 14 13 12 12 12 11 10 9 7 6 5 5 5 4 3 3 3 3 3 3 2 2 2 1 1 1 1 2 2 2 2 1 1 1 1 2 2 2 2 1 1 1 1
17 17 17 16 14 13 12 12 12 12 11 9 6 5 5 5 4 3 3 3 3 3 3 3 3 2 2 2 2 2 2 2 2 2 2 2 1 1 1 2 2 2 1 1 1 1 1
17 17 17 16 15 14 12 12 12 12 11 9 6 4 4 4 3 3 3 3 3 3 3 3 3 3 2 2 2 2 2 3 3 3 3 2 2 2 1 2 2 1 1 1 1 1 1
17 17 17 16 15 14 13 12 12 12 11 9 6 4 4 3 3 2 3 3 2 2 3 3 3 3 3 2 2 2 3 3 3 3 3 3 3 2 2 2 2 2 1 1 1 1 1
17 17 17 16 15 14 13 12 12 12 11 9 6 4 3 3 2 2 3 3 2 2 3 3 3 3 3 3 2 2 3 3 3 3 3 3 3 3 2 2 2 2 2 2 2 2 2
17 17 16 16 16 15 13 12 12 12 11 8 6 5 4 3 2 2 2 2 2 2 2 3 3 3 3 3 3 2 2 3 3 3 3 3 3 3 3 3 3 3 3 3 3 2 2
17 16 16 16 16 15 14 12 12 12 11 10 8 6 4 3 3 3 2 2 2 2 2 3 3 3 3 3 2 2 2 3 3 3 3 3 3 3 3 4 4 4 4 4 3 3 3
16 16 16 16 16 16 15 13 11 12 12 12 11 9 6 4 3 3 2 2 2 2 2 2 2 2 3 3 3 3 3 3 3 3 3 3 3 3 3 3 3 3 4 4 4 4 4
15 15 15 15 16 15 14 12 11 11 12 12 12 10 8 5 4 3 3 3 3 3 2 2 2 2 3 3 3 3 3 3 3 3 3 3 3 3 2 2 2 3 3 4 4 4 4
15 15 14 15 15 15 14 12 11 11 11 11 11 11 9 7 6 5 5 4 3 3 3 2 2 2 3 3 2 3 3 3 3 3 3 3 3 3 2 2 2 3 3 3 3 3 4
14 14 14 14 14 14 13 11 10 10 10 10 10 10 9 8 8 8 7 6 5 4 3 3 2 2 2 2 2 2 3 3 3 3 3 3 3 3 2 2 2 3 3 3 3 3 3
13 13 13 13 14 13 12 10 9 9 9 9 10 10 9 8 9 9 8 8 7 6 4 3 3 2 2 2 2 2 2 3 3 3 3 3 4 3 3 2 2 3 3 3 2 2 2
11 11 11 12 13 12 11 9 8 8 9 9 10 11 10 9 9 9 10 10 9 8 7 5 4 3 3 2 2 2 2 2 3 3 3 3 3 3 3 3 3 3 3 3 2 2 2
10 10 10 11 12 12 10 8 8 8 9 9 10 11 11 10 10 10 11 11 11 10 9 7 5 4 3 3 2 2 2 2 2 2 3 3 3 3 3 3 3 3 3 3 3 3 3